EW9290 Weather Reports


Display with metric or nautical units.
time (UTC)temp
F
wind
direction
speed
MPH
gust
MPH
rain 1hr
in
rain 24hr
in
rain mn
in
humidity
%
barometer
mb
20260507033554 43 22 0.0 0.0 0.00 0.30 0.30 91 1011.6
20260507033051 44 22 0.0 0.0 0.00 0.30 0.30 91 1011.8
20260507032548 44 22 0.0 0.0 0.00 0.30 0.30 91 1011.7
20260507032044 43 19 0.0 0.0 0.00 0.30 0.30 91 1011.8
20260507031541 43 19 0.0 0.0 0.00 0.30 0.30 90 1011.8
20260507031038 44 19 0.0 0.0 0.00 0.30 0.30 91 1011.7
20260507030534 44 19 0.0 0.0 0.00 0.30 0.30 91 1011.9
20260507030032 44 18 0.0 0.0 0.00 0.30 0.30 89 1012.0
20260507025529 44 19 0.0 0.0 0.00 0.30 0.30 87 1011.8
20260507025026 44 18 0.0 0.0 0.00 0.30 0.30 86 1011.9
20260507024524 44 19 0.0 0.0 0.00 0.30 0.30 84 1011.6
20260507024020 44 19 0.0 0.0 0.00 0.30 0.30 84 1011.6
20260507023516 44 19 0.0 0.0 0.00 0.30 0.30 83 1011.7
20260507023015 45 19 0.0 0.0 0.00 0.30 0.30 82 1011.5
20260507022511 45 19 0.0 0.0 0.00 0.30 0.30 81 1011.5
20260507022006 46 19 0.0 0.0 0.00 0.30 0.30 80 1011.5
20260507021502 46 19 0.0 0.0 0.00 0.30 0.30 79 1011.3
20260507020959 46 18 0.0 0.0 0.00 0.30 0.30 79 1011.4
20260507020456 46 18 0.0 0.0 0.00 0.30 0.30 80 1011.5
20260507015953 46 18 0.0 0.0 0.00 0.30 0.30 79 1011.2
20260507015452 46 18 0.0 0.0 0.00 0.30 0.30 80 1011.3
20260507014948 46 18 0.0 0.0 0.00 0.30 0.30 81 1011.3
20260507014445 46 18 0.0 0.0 0.00 0.30 0.30 80 1011.4
20260507013941 46 18 0.0 0.0 0.00 0.30 0.30 78 1011.5
20260507013438 46 18 0.0 0.0 0.00 0.30 0.30 77 1011.0
20260507012935 46 18 0.0 0.0 0.00 0.30 0.30 77 1011.0
20260507012432 47 18 0.0 0.0 0.00 0.30 0.30 76 1011.1
20260507011928 47 18 0.0 0.0 0.00 0.30 0.30 75 1011.0
20260507011426 47 18 0.0 0.0 0.00 0.30 0.30 73 1011.1
20260507010926 47 18 0.0 0.0 0.00 0.30 0.30 73 1010.9
20260507010421 47 18 0.0 0.0 0.00 0.30 0.30 72 1010.9
20260507005918 47 18 0.0 0.0 0.00 0.30 0.30 74 1011.1
20260507005415 47 18 0.0 0.0 0.00 0.30 0.30 73 1011.1
20260507004912 48 18 0.0 0.0 0.00 0.30 0.30 72 1010.9
20260507004408 48 11 0.0 0.0 0.00 0.30 0.30 72 1010.8
20260507003906 48 11 0.0 0.0 0.00 0.30 0.30 72 1010.8
20260507003401 48 11 0.0 0.0 0.00 0.30 0.30 70 1010.8
20260507002857 48 11 1.0 1.0 0.00 0.30 0.30 69 1010.8
20260507002353 48 6 1.0 2.0 0.00 0.30 0.30 69 1010.9
20260507001850 48 22 1.0 2.0 0.00 0.30 0.30 69 1010.8
20260507001347 48 5 2.0 3.0 0.00 0.30 0.30 70 1010.9
20260507000843 49 18 1.0 1.0 0.00 0.30 0.30 70 1010.9
20260507000339 49 355 1.0 2.0 0.00 0.30 0.30 68 1010.5
20260506235836 49 346 2.0 2.0 0.00 0.30 0.30 69 1011.0
20260506235332 49 22 1.0 1.0 0.00 0.30 0.30 67 1011.0
20260506234828 49 17 1.0 1.0 0.00 0.30 0.30 68 1010.5
20260506234326 49 8 3.0 3.0 0.00 0.30 0.30 67 1010.9
20260506233824 49 17 0.0 0.0 0.00 0.30 0.30 68 1011.0
20260506233319 49 17 0.0 0.0 0.00 0.30 0.30 67 1011.1
20260506232817 49 25 1.0 1.0 0.00 0.30 0.30 68 1010.9
20260506232312 49 38 1.0 2.0 0.00 0.30 0.30 67 1010.7
20260506231809 49 33 3.0 3.0 0.00 0.30 0.30 67 1010.7
20260506231307 49 15 2.0 6.0 0.00 0.30 0.30 67 1010.8
20260506230804 49 14 2.0 2.0 0.00 0.30 0.30 68 1010.7
20260506230301 49 29 2.0 3.0 0.00 0.30 0.30 69 1010.5
20260506225757 49 15 4.0 6.0 0.00 0.30 0.30 69 1010.5
20260506225254 49 27 1.0 1.0 0.00 0.30 0.30 68 1010.5
20260506224745 50 24 2.0 3.0 0.00 0.30 0.30 68 1010.5
20260506224243 50 33 2.0 3.0 0.00 0.30 0.30 68 1010.3
20260506223738 50 24 4.0 5.0 0.00 0.30 0.30 67 1010.5
20260506223234 50 16 5.0 6.0 0.00 0.30 0.30 67 1010.4
20260506222731 50 13 7.0 9.0 0.00 0.30 0.30 66 1010.5
20260506222226 50 2 4.0 5.0 0.00 0.30 0.30 67 1010.3
20260506221725 50 34 4.0 6.0 0.00 0.30 0.30 67 1010.3
20260506221223 50 26 5.0 7.0 0.00 0.30 0.30 67 1010.0
20260506220720 50 351 4.0 5.0 0.00 0.30 0.30 67 1010.2
20260506220214 51 330 6.0 7.0 0.00 0.30 0.30 65 1010.0
20260506215711 51 9 3.0 3.0 0.00 0.30 0.30 61 1010.2
20260506215207 51 341 2.0 2.0 0.00 0.30 0.30 58 1009.8
20260506214704 51 2 5.0 7.0 0.00 0.30 0.30 58 1010.0
20260506214201 51 333 4.0 5.0 0.00 0.30 0.30 57 1009.8
20260506213659 52 324 3.0 3.0 0.00 0.30 0.30 58 1009.6
20260506213156 52 19 3.0 3.0 0.00 0.30 0.30 58 1009.8
20260506212653 52 6 0.0 1.0 0.00 0.30 0.30 57 1009.5
20260506212148 53 13 4.0 6.0 0.00 0.30 0.30 58 1009.5
20260506211644 52 339 4.0 6.0 0.00 0.30 0.30 57 1009.4
20260506211141 52 8 5.0 6.0 0.00 0.30 0.30 58 1009.1
20260506210638 52 43 3.0 6.0 0.00 0.30 0.30 56 1009.5
20260506210134 53 10 4.0 5.0 0.00 0.30 0.30 58 1009.4
20260506205632 53 271 3.0 3.0 0.00 0.30 0.30 57 1009.5
20260506205126 53 297 3.0 5.0 0.00 0.30 0.30 55 1009.4
20260506204625 53 0 3.0 5.0 0.00 0.30 0.30 55 1009.5
20260506204121 52 290 2.0 2.0 0.00 0.30 0.30 54 1009.4
20260506203619 53 0 2.0 3.0 0.00 0.30 0.30 56 1009.5
20260506203116 53 314 4.0 5.0 0.00 0.30 0.30 57 1009.6
20260506202614 53 290 2.0 3.0 0.00 0.30 0.30 53 1009.6
20260506202110 52 331 5.0 5.0 0.00 0.30 0.30 55 1009.4
20260506201607 52 301 4.0 5.0 0.00 0.30 0.30 53 1009.5
20260506201103 52 309 3.0 3.0 0.00 0.30 0.30 53 1009.5
20260506200600 52 26 4.0 5.0 0.00 0.30 0.30 53 1009.6
20260506200057 52 320 1.0 2.0 0.00 0.30 0.30 56 1009.6
20260506195553 52 320 5.0 7.0 0.00 0.30 0.30 53 1009.7
20260506195049 52 317 3.0 5.0 0.00 0.30 0.30 54 1009.5
20260506194548 52 321 2.0 2.0 0.00 0.30 0.30 51 1009.7
20260506194043 52 264 3.0 5.0 0.00 0.30 0.30 53 1009.5
20260506193541 52 316 5.0 6.0 0.00 0.30 0.30 49 1009.7
20260506193038 52 335 2.0 3.0 0.00 0.30 0.30 51 1009.4
20260506192535 52 20 5.0 7.0 0.00 0.30 0.30 55 1009.8
20260506192031 52 30 7.0 9.0 0.00 0.30 0.30 57 1009.6
20260506191528 53 346 3.0 3.0 0.00 0.30 0.30 54 1009.9
20260506191024 54 353 5.0 6.0 0.00 0.30 0.30 55 1009.7
20260506190521 53 306 6.0 7.0 0.00 0.30 0.30 52 1009.8
20260506190019 52 47 9.0 11.0 0.00 0.30 0.30 54 1009.5
20260506185515 52 348 9.0 11.0 0.00 0.30 0.30 54 1009.8
20260506185012 53 293 7.0 7.0 0.00 0.30 0.30 50 1009.9
20260506184509 53 329 4.0 5.0 0.00 0.30 0.30 52 1009.9
20260506184006 52 12 7.0 9.0 0.00 0.30 0.30 53 1009.7
20260506183502 54 3 9.0 10.0 0.00 0.30 0.30 55 1009.8
20260506182959 53 309 6.0 8.0 0.00 0.30 0.30 52 1009.9
20260506182456 53 306 2.0 2.0 0.00 0.30 0.30 58 1009.6
20260506181953 53 13 5.0 8.0 0.00 0.30 0.30 59 1009.7
20260506181451 53 302 5.0 7.0 0.00 0.30 0.30 54 1009.8
20260506180948 53 312 3.0 5.0 0.00 0.30 0.30 53 1010.0
20260506180444 53 287 3.0 3.0 0.00 0.30 0.30 52 1009.9
20260506175941 52 304 4.0 5.0 0.00 0.30 0.30 57 1009.8
20260506175438 53 345 9.0 11.0 0.00 0.30 0.30 59 1009.9
20260506174934 52 331 5.0 7.0 0.00 0.30 0.30 54 1009.9
20260506174432 52 322 4.0 5.0 0.00 0.30 0.30 54 1010.0
20260506173928 52 343 3.0 3.0 0.00 0.30 0.30 64 1009.7
20260506173425 53 348 3.0 3.0 0.00 0.30 0.30 62 1009.5
20260506172917 53 25 7.0 9.0 0.00 0.30 0.30 61 1009.5
20260506172414 52 21 6.0 7.0 0.00 0.30 0.30 62 1009.4
20260506171911 52 333 5.0 7.0 0.00 0.30 0.30 61 1009.6
20260506171408 52 17 6.0 9.0 0.00 0.30 0.30 61 1009.5
20260506170906 52 294 6.0 7.0 0.00 0.30 0.30 60 1009.4
20260506170401 52 330 8.0 10.0 0.00 0.30 0.30 60 1009.8
20260506165855 53 350 9.0 11.0 0.00 0.30 0.30 61 1009.7
20260506165353 53 342 3.0 3.0 0.00 0.30 0.30 59 1009.7
20260506164849 53 313 4.0 6.0 0.00 0.30 0.30 62 1009.5
20260506164345 53 329 4.0 5.0 0.00 0.30 0.30 64 1009.6
20260506163843 52 330 3.0 5.0 0.00 0.30 0.30 63 1009.5
20260506163338 53 313 5.0 6.0 0.00 0.30 0.30 59 1009.3
20260506162833 52 24 5.0 6.0 0.00 0.30 0.30 64 1009.1
20260506162332 52 4 4.0 6.0 0.00 0.30 0.30 63 1009.5
20260506161829 52 313 3.0 5.0 0.00 0.30 0.30 65 1009.3
20260506161326 51 23 1.0 1.0 0.00 0.30 0.30 70 1009.3
20260506160823 51 3 9.0 13.0 0.00 0.30 0.30 68 1009.1
20260506160319 52 7 2.0 2.0 0.00 0.30 0.30 70 1009.1
20260506155818 52 348 7.0 10.0 0.00 0.30 0.30 68 1009.0
20260506155314 52 341 4.0 5.0 0.00 0.30 0.30 69 1009.1
20260506153427 52 324 6.0 7.0 0.00 0.30 0.30 76 1008.9
20260506152925 50 332 5.0 7.0 0.00 0.30 0.30 77 1008.7
20260506152421 51 323 7.0 8.0 0.00 0.30 0.30 79 1008.4
20260506151920 50 325 3.0 3.0 0.00 0.30 0.30 79 1008.8
20260506151416 51 318 3.0 3.0 0.00 0.30 0.30 79 1008.8
20260506150914 50 322 3.0 5.0 0.00 0.30 0.30 82 1008.2
20260506150410 50 27 4.0 6.0 0.00 0.30 0.30 82 1008.5
20260506145907 50 351 2.0 2.0 0.00 0.30 0.30 80 1008.4
20260506145403 49 284 2.0 3.0 0.00 0.30 0.30 81 1008.4
20260506144901 49 339 4.0 5.0 0.00 0.30 0.30 82 1008.4
20260506144357 49 306 2.0 2.0 0.00 0.30 0.30 83 1008.5
20260506143856 49 20 4.0 6.0 0.00 0.30 0.30 84 1008.4
20260506143352 48 344 4.0 5.0 0.00 0.30 0.30 84 1008.2
20260506142851 49 0 2.0 2.0 0.00 0.30 0.30 85 1008.2
20260506142348 49 289 4.0 5.0 0.00 0.30 0.30 85 1008.1
20260506141847 48 288 1.0 2.0 0.00 0.30 0.30 85 1008.1
20260506141344 48 343 1.0 2.0 0.00 0.30 0.30 87 1008.2
20260506140842 47 302 1.0 2.0 0.00 0.30 0.30 89 1008.0
20260506140339 47 309 1.0 2.0 0.00 0.30 0.30 92 1008.1
20260506135836 46 320 3.0 3.0 0.00 0.30 0.30 93 1008.0
20260506135332 46 325 1.0 1.0 0.00 0.30 0.30 97 1008.2
20260506134828 45 318 3.0 3.0 0.00 0.30 0.30 99 1008.0
20260506134325 45 310 2.0 2.0 0.00 0.30 0.30 99 1007.9
20260506133822 45 287 3.0 3.0 0.00 0.30 0.30 99 1007.9
20260506133319 45 326 2.0 2.0 0.00 0.30 0.30 99 1008.1
20260506132816 45 355 2.0 2.0 0.00 0.30 0.30 99 1007.9
20260506132313 45 346 1.0 1.0 0.00 0.30 0.30 99 1008.2
20260506131811 45 311 2.0 2.0 0.00 0.30 0.30 99 1007.9
20260506131307 45 323 0.0 1.0 0.00 0.30 0.30 99 1008.2
20260506130804 44 8 3.0 5.0 0.00 0.30 0.30 99 1007.7
20260506130300 44 334 1.0 2.0 0.00 0.30 0.30 99 1007.4
20260506125759 44 295 0.0 0.0 0.00 0.30 0.30 99 1007.3
20260506125256 45 357 3.0 3.0 0.00 0.30 0.30 99 1007.6
20260506124755 44 358 1.0 1.0 0.00 0.30 0.30 99 1007.3
20260506124252 45 337 1.0 2.0 0.00 0.30 0.30 99 1007.2
20260506123749 45 9 2.0 2.0 0.00 0.30 0.30 99 1006.8
20260506123248 45 15 4.0 5.0 0.00 0.30 0.30 99 1007.3
20260506122744 45 336 2.0 2.0 0.00 0.30 0.30 99 1007.1
20260506122241 44 343 2.0 3.0 0.00 0.30 0.30 99 1007.0
20260506121739 44 355 1.0 2.0 0.00 0.30 0.30 99 1007.0
20260506121236 44 347 3.0 3.0 0.00 0.30 0.30 99 1007.1
20260506120733 44 346 0.0 1.0 0.00 0.30 0.30 99 1007.2
20260506120231 44 336 1.0 1.0 0.00 0.30 0.30 99 1007.2
20260506115729 44 341 0.0 0.0 0.00 0.30 0.30 99 1007.0
20260506115227 44 341 0.0 0.0 0.00 0.30 0.30 99 1006.8
20260506114724 44 359 0.0 0.0 0.00 0.30 0.30 99 1007.2
20260506114221 44 359 0.0 0.0 0.00 0.30 0.30 99 1006.8
20260506113720 44 0 0.0 1.0 0.00 0.30 0.30 99 1007.0
20260506113217 44 0 0.0 0.0 0.00 0.30 0.30 99 1006.6
20260506112713 44 359 0.0 0.0 0.00 0.30 0.30 99 1006.8
20260506112211 44 335 0.0 0.0 0.00 0.30 0.30 99 1006.5
20260506111708 44 334 0.0 0.0 0.00 0.30 0.30 99 1006.4
20260506111206 43 334 0.0 0.0 0.00 0.30 0.30 99 1006.2
20260506110703 43 299 0.0 0.0 0.00 0.30 0.30 99 1006.1
20260506110201 43 315 0.0 0.0 0.00 0.30 0.30 99 1006.2
20260506105657 44 337 0.0 0.0 0.00 0.30 0.30 99 1006.3
20260506105154 43 327 1.0 2.0 0.00 0.30 0.30 99 1006.0
20260506104652 43 15 1.0 1.0 0.00 0.30 0.30 99 1005.6
20260506104149 43 356 4.0 5.0 0.00 0.30 0.30 99 1006.0
20260506103646 43 5 3.0 3.0 0.00 0.30 0.30 99 1005.9
20260506103143 44 338 2.0 2.0 0.00 0.30 0.30 99 1005.9
20260506102642 44 331 3.0 3.0 0.00 0.30 0.30 99 1005.9
20260506102138 43 4 3.0 3.0 0.00 0.30 0.30 99 1006.0
20260506101635 44 323 2.0 3.0 0.00 0.30 0.30 99 1005.6
20260506101132 44 358 1.0 1.0 0.00 0.30 0.30 99 1005.5
20260506100631 43 353 2.0 2.0 0.00 0.30 0.30 99 1005.1
20260506100128 43 21 3.0 3.0 0.00 0.30 0.30 99 1005.0
20260506095627 44 19 1.0 2.0 0.00 0.30 0.30 99 1004.8
20260506095123 44 34 1.0 2.0 0.00 0.30 0.30 99 1004.9
20260506094620 44 31 0.0 0.0 0.00 0.30 0.30 99 1005.2
20260506094118 44 21 1.0 1.0 0.00 0.30 0.30 99 1005.6
20260506093616 44 28 0.0 1.0 0.00 0.30 0.30 99 1005.5
20260506093113 44 16 2.0 2.0 0.00 0.30 0.30 99 1005.7
20260506092611 44 340 5.0 6.0 0.07 0.30 0.30 99 1006.0
20260506092108 44 9 2.0 2.0 0.07 0.30 0.30 99 1006.1
20260506091606 44 328 1.0 1.0 0.00 0.29 0.29 99 1006.1
20260506091103 44 305 2.0 3.0 0.07 0.29 0.29 99 1006.0
20260506090601 44 340 5.0 6.0 0.05 0.28 0.28 99 1005.9
20260506090057 44 327 2.0 2.0 0.05 0.28 0.28 99 1005.7
20260506085554 44 345 3.0 5.0 0.00 0.27 0.27 99 1005.7
20260506085050 44 335 1.0 1.0 0.00 0.27 0.27 99 1005.5
20260506084547 44 344 5.0 6.0 0.00 0.27 0.27 99 1005.8
20260506084043 44 350 5.0 6.0 0.00 0.27 0.27 99 1005.3
20260506083541 44 354 1.0 1.0 0.00 0.27 0.27 99 1005.3
20260506083038 44 356 1.0 1.0 0.00 0.27 0.27 99 1005.7
20260506082535 44 7 1.0 1.0 0.07 0.27 0.27 99 1005.5
20260506082030 44 3 3.0 3.0 0.07 0.27 0.27 99 1005.4
20260506081529 44 10 3.0 3.0 0.05 0.26 0.26 99 1005.7
20260506081026 44 13 1.0 1.0 0.05 0.26 0.26 99 1005.8
20260506080523 44 29 3.0 3.0 0.07 0.25 0.25 99 1005.9
20260506073507 44 7 1.0 2.0 0.07 0.23 0.23 99 1005.7
20260506073004 44 8 3.0 5.0 0.00 0.22 0.22 99 1005.7
20260506072501 44 5 0.0 1.0 0.05 0.22 0.22 99 1005.6
20260506071959 44 335 3.0 3.0 0.05 0.22 0.22 99 1005.7
20260506071456 44 0 0.0 0.0 0.07 0.21 0.21 99 1005.5
20260506070953 44 357 2.0 2.0 0.07 0.21 0.21 99 1005.4
20260506070450 44 347 3.0 3.0 0.00 0.20 0.20 99 1005.2
20260506062428 44 7 5.0 7.0 0.00 0.16 0.16 99 1005.4
20260506061923 44 352 1.0 1.0 0.07 0.16 0.16 99 1005.6
20260506061420 44 0 3.0 3.0 0.07 0.16 0.16 99 1005.6
20260506060918 44 352 0.0 0.0 0.05 0.15 0.15 99 1005.6
20260506060416 44 10 2.0 2.0 0.05 0.15 0.15 99 1005.7
20260506051348 44 16 3.0 3.0 0.14 0.06 0.06 99 1005.9
20260506050845 44 29 2.0 2.0 0.12 0.05 0.05 99 1006.0
20260506050343 45 26 4.0 5.0 0.05 0.04 0.04 99 1006.0
20260506044833 45 348 1.0 1.0 0.07 0.03 0.03 99 1005.9
20260506044331 45 6 3.0 3.0 0.00 0.02 0.02 99 1005.8
20260506043828 45 23 2.0 2.0 0.00 0.02 0.02 99 1006.0
20260506043325 45 21 5.0 7.0 0.05 0.02 0.02 99 1006.1
20260506042823 45 1 5.0 6.0 0.05 0.02 0.02 99 1006.1
20260506042322 45 15 4.0 5.0 0.00 0.01 0.01 99 1006.0
20260506041821 45 14 3.0 3.0 0.00 0.01 0.01 99 1006.3
20260506041317 45 14 7.0 9.0 0.07 0.01 0.01 99 1006.1
20260506040814 46 29 6.0 8.0 0.07 0.01 0.01 99 1006.3
20260506040312 46 356 7.0 8.0 0.05 0.00 0.00 99 1006.2
20260506035808 47 12 6.0 7.0 0.12 1.01 1.01 99 1006.3
20260506035306 47 13 6.0 7.0 0.07 1.00 1.00 99 1006.3
20260506034803 47 7 5.0 6.0 0.05 0.99 0.99 99 1006.6
20260506034259 47 347 3.0 5.0 0.12 0.99 0.99 99 1006.6